FENGYUN 1C DEB, 30982

Orbit data source: Space-Track

FENGYUN 1C DEB, 30982 is space debris in SSO originally from a launch on Mon, 10 May 1999 UTC launched from the Taiyaun Space Center, China (TSC). Fengyun 1C debris stems from the Chinese weather satellite Fengyun-1C, which was intentionally destroyed by a Chinese anti-satellite missile in 2007. This event dramatically increased the amount of space debris, with thousands of trackable fragments posing hazards to satellites and human spaceflight. The Fengyun 1C debris cloud has become a focal point in discussions about space sustainability and the need for international regulations to prevent the creation of new debris.

Loading next visibility...
Identifier
30982, 1999-025BBY
Orbit
SSO
Country
Flag of CNCN / PRC
Related business
Manufacturer
Unknown
Mission
Spacecraft
Bus & Motor
Unknown
Mass
Unknown
Launch date (UTC)
1999-05-10 (27 years ago)
Launch vehicle
Unknown
Launch site
Taiyaun Space Center, China (TSC)
Object type
Payload
Rocket body
Debris
Shape & HBR
Unknown shape, 0.1 m
Radar Cross Section
Small (<0.1 m²)

Expand to show TLE details & history
Last TLE update: 17 hours ago

TLE from 17 hours ago
0 FENGYUN 1C DEB
1 30982U 99025BBY 26121.75175770  .00000730  00000-0  16001-3 0  9999
2 30982  98.2288 113.9766 0179130 241.4532 297.6958 14.51354295730843
Epoch: 2026-05-01T18:02Z
TLE epoch observation values (Epoch: 2026-05-01T18:02:31.865Z)
Latitude
2.55683°
Longitude
164.03232°
Altitude
666.597 km
Speed
7.554 km/s
True Right ascension
19h 37m 22s
True Declination
2° 32' 29"
Sunlit
Object was in daylight at epoch
Visualization orbit readout
Latitude
Unknown
Longitude
Unknown
Altitude
Unknown
Speed
Unknown
Apparent Right ascension
Unknown
Apparent Declination
Unknown
Sunlit
N/A
Visualization observer readout
Local Sidereal Time
19:12:21
Azimuth
Unknown
Elevation
Unknown
Doppler factor
Unknown
Orbital elements
Apogee altitude
845.44 km
Perigee altitude
591.202 km
Semi-major axis
7,096.458 km
Eccentricity
0.01791
Inclination
98.2288°
RAAN
113.9766°
Arg. of periapsis
241.4532°
True anomaly
295.85951°
Mean anomaly
297.6958°
Eccentric anomaly
296.77954°
Mean motion
3.63062 °/min
Orbital period
99.16 mins
BSTAR
0.00016001
Loading maneuver chart data...
Computing Atmospheric mass density...
Loading historical data...
Loading historical data...
Loading historical data...
Loading historical data...
Loading historical data...
Loading historical data...
Loading historical data...

Documentation

Showing up to 5 results
|